N208JH KVNY-KCRQ

Flight info

Callsign N208JH
Flight time 0h 46m
Altitude 7000
Route VNY V186 ROBNN V458 OCN
Aircraft C208/L-VGD/C

Departure

Time 2026-05-04 01:23
Airport Van Nuys Airport (KVNY)

Arrival

Time 2026-05-04 02:10
Airport McClellan-Palomar Airport (KCRQ)
Time Latitude Longitude Altitude Speed Heading
2026-05-04 01:06 34.20463 -118.48733 774 ft 0 kts 263°
2026-05-04 01:14 34.20463 -118.48746 774 ft 0 kts 271°
2026-05-04 01:15 34.20463 -118.48750 774 ft 3 kts 262°
2026-05-04 01:15 34.20432 -118.48824 772 ft 15 kts 258°
2026-05-04 01:15 34.20314 -118.48855 768 ft 17 kts 185°
2026-05-04 01:16 34.20274 -118.48877 767 ft 0 kts 249°
2026-05-04 01:19 34.20270 -118.48924 767 ft 14 kts 264°
2026-05-04 01:19 34.20290 -118.49082 766 ft 24 kts 339°
2026-05-04 01:19 34.20463 -118.49107 775 ft 25 kts 354°
2026-05-04 01:19 34.20637 -118.49125 781 ft 26 kts 355°
2026-05-04 01:20 34.20808 -118.49139 788 ft 23 kts 353°
2026-05-04 01:20 34.20969 -118.49155 790 ft 23 kts 358°
2026-05-04 01:20 34.21139 -118.49171 792 ft 25 kts 355°
2026-05-04 01:20 34.21298 -118.49185 795 ft 23 kts 355°
2026-05-04 01:21 34.21473 -118.49204 795 ft 27 kts 353°
2026-05-04 01:21 34.21655 -118.49227 802 ft 25 kts 358°
2026-05-04 01:21 34.21816 -118.49237 806 ft 23 kts 354°
2026-05-04 01:21 34.21872 -118.49133 808 ft 13 kts 133°
2026-05-04 01:22 34.21840 -118.49121 807 ft 8 kts 174°
2026-05-04 01:22 34.21632 -118.49100 800 ft 54 kts 175°
2026-05-04 01:22 34.21138 -118.49060 852 ft 82 kts 174°
2026-05-04 01:22 34.20510 -118.49006 984 ft 96 kts 174°
2026-05-04 01:23 34.19818 -118.48950 1187 ft 103 kts 173°
2026-05-04 01:23 34.19087 -118.48899 1355 ft 106 kts 177°
2026-05-04 01:23 34.18354 -118.48766 1560 ft 110 kts 154°
2026-05-04 01:23 34.17835 -118.48083 1740 ft 115 kts 126°
2026-05-04 01:24 34.17406 -118.47220 1877 ft 124 kts 127°
2026-05-04 01:24 34.16972 -118.46334 2098 ft 120 kts 126°
2026-05-04 01:24 34.16553 -118.45462 2314 ft 120 kts 124°
2026-05-04 01:24 34.16137 -118.44572 2515 ft 123 kts 124°
2026-05-04 01:25 34.15705 -118.43714 2795 ft 120 kts 126°
2026-05-04 01:25 34.15270 -118.42846 3026 ft 123 kts 118°
2026-05-04 01:25 34.15168 -118.41801 3276 ft 129 kts 84°
2026-05-04 01:25 34.15436 -118.40761 3526 ft 129 kts 74°
2026-05-04 01:26 34.15717 -118.39761 3803 ft 124 kts 74°
2026-05-04 01:26 34.15984 -118.38755 3983 ft 128 kts 74°
2026-05-04 01:26 34.16242 -118.37727 4231 ft 126 kts 77°
2026-05-04 01:26 34.16506 -118.36740 4511 ft 123 kts 75°
2026-05-04 01:27 34.16731 -118.35743 4734 ft 123 kts 79°
2026-05-04 01:27 34.16944 -118.34725 4903 ft 128 kts 76°
2026-05-04 01:27 34.17152 -118.33642 4987 ft 136 kts 86°
2026-05-04 01:27 34.17112 -118.32485 5043 ft 142 kts 99°
2026-05-04 01:28 34.16912 -118.31298 5070 ft 147 kts 109°
2026-05-04 01:28 34.16559 -118.30108 5024 ft 154 kts 112°
2026-05-04 01:28 34.16184 -118.28884 5004 ft 156 kts 111°
2026-05-04 01:28 34.15809 -118.27649 5000 ft 157 kts 111°
2026-05-04 01:29 34.15434 -118.26414 5003 ft 156 kts 111°
2026-05-04 01:29 34.15058 -118.25181 5002 ft 157 kts 111°
2026-05-04 01:29 34.14681 -118.23949 4998 ft 157 kts 111°
2026-05-04 01:29 34.14315 -118.22742 5176 ft 149 kts 111°
2026-05-04 01:30 34.13962 -118.21581 5395 ft 145 kts 112°
2026-05-04 01:30 34.13617 -118.20450 5615 ft 142 kts 112°
2026-05-04 01:30 34.13280 -118.19337 5831 ft 140 kts 114°
2026-05-04 01:30 34.12942 -118.18234 5985 ft 144 kts 113°
2026-05-04 01:31 34.12580 -118.17057 5990 ft 155 kts 113°
2026-05-04 01:31 34.12203 -118.15834 5998 ft 160 kts 112°
2026-05-04 01:31 34.11808 -118.14552 5996 ft 164 kts 113°
2026-05-04 01:31 34.11419 -118.13276 5992 ft 161 kts 112°
2026-05-04 01:32 34.11037 -118.12022 5995 ft 159 kts 114°
2026-05-04 01:32 34.10651 -118.10765 5991 ft 160 kts 113°
2026-05-04 01:32 34.10392 -118.09916 5992 ft 160 kts 113°
2026-05-04 01:32 34.09882 -118.08252 5988 ft 160 kts 114°
2026-05-04 01:33 34.09498 -118.06996 5991 ft 160 kts 114°
2026-05-04 01:33 34.09112 -118.05736 5985 ft 161 kts 113°
2026-05-04 01:33 34.08724 -118.04469 5981 ft 161 kts 114°
2026-05-04 01:33 34.08459 -118.03613 5982 ft 161 kts 115°
2026-05-04 01:34 34.08069 -118.02347 5983 ft 161 kts 114°
2026-05-04 01:34 34.07676 -118.01071 5984 ft 163 kts 114°
2026-05-04 01:34 34.07289 -117.99808 5986 ft 163 kts 114°
2026-05-04 01:34 34.06892 -117.98511 5988 ft 162 kts 114°
2026-05-04 01:35 34.06497 -117.97233 5987 ft 162 kts 113°
2026-05-04 01:35 34.06105 -117.95954 5984 ft 163 kts 113°
2026-05-04 01:35 34.05712 -117.94679 5981 ft 162 kts 113°
2026-05-04 01:35 34.05327 -117.93425 5980 ft 161 kts 114°
2026-05-04 01:36 34.04935 -117.92161 5978 ft 161 kts 114°
2026-05-04 01:36 34.04542 -117.90887 5980 ft 160 kts 113°
2026-05-04 01:36 34.04163 -117.89649 5979 ft 160 kts 113°
2026-05-04 01:36 34.03771 -117.88381 5979 ft 159 kts 114°
2026-05-04 01:37 34.03387 -117.87143 5977 ft 160 kts 113°
2026-05-04 01:37 34.03001 -117.85886 5978 ft 160 kts 113°
2026-05-04 01:37 34.02610 -117.84632 5980 ft 160 kts 114°
2026-05-04 01:37 34.02221 -117.83371 5978 ft 160 kts 114°
2026-05-04 01:38 34.01827 -117.82100 5982 ft 160 kts 113°
2026-05-04 01:38 34.01397 -117.80895 5980 ft 158 kts 117°
2026-05-04 01:38 34.00989 -117.79667 5979 ft 158 kts 114°
2026-05-04 01:38 34.00584 -117.78438 5986 ft 158 kts 115°
2026-05-04 01:39 34.00165 -117.77215 5987 ft 157 kts 116°
2026-05-04 01:39 33.99749 -117.75996 5988 ft 158 kts 115°
2026-05-04 01:39 33.99330 -117.74770 5987 ft 158 kts 116°
2026-05-04 01:39 33.98918 -117.73565 5985 ft 153 kts 115°
2026-05-04 01:40 33.98513 -117.72387 5983 ft 151 kts 116°
2026-05-04 01:40 33.98109 -117.71220 5988 ft 151 kts 115°
2026-05-04 01:40 33.97706 -117.70046 5984 ft 154 kts 116°
2026-05-04 01:40 33.97290 -117.68842 5988 ft 157 kts 116°
2026-05-04 01:41 33.96867 -117.67620 5995 ft 159 kts 116°
2026-05-04 01:41 33.96441 -117.66382 6002 ft 161 kts 116°
2026-05-04 01:41 33.96009 -117.65120 5998 ft 164 kts 115°
2026-05-04 01:41 33.95574 -117.63847 6001 ft 164 kts 116°
2026-05-04 01:42 33.95135 -117.62580 5999 ft 164 kts 117°
2026-05-04 01:42 33.94697 -117.61310 6001 ft 164 kts 117°
2026-05-04 01:42 33.94261 -117.60047 5996 ft 163 kts 117°
2026-05-04 01:42 33.93831 -117.58803 6080 ft 157 kts 117°
2026-05-04 01:43 33.93425 -117.57613 6282 ft 151 kts 117°
2026-05-04 01:43 33.93025 -117.56464 6473 ft 147 kts 117°
2026-05-04 01:43 33.92635 -117.55333 6653 ft 145 kts 117°
2026-05-04 01:43 33.92251 -117.54214 6838 ft 144 kts 117°
2026-05-04 01:44 33.91844 -117.53118 7021 ft 142 kts 127°
2026-05-04 01:44 33.91130 -117.52359 7212 ft 136 kts 153°
2026-05-04 01:44 33.90334 -117.51736 7406 ft 137 kts 150°
2026-05-04 01:44 33.89550 -117.51083 7597 ft 137 kts 150°
2026-05-04 01:45 33.88783 -117.50440 7779 ft 136 kts 151°
2026-05-04 01:45 33.88009 -117.49791 7977 ft 136 kts 151°
2026-05-04 01:45 33.86467 -117.48497 8365 ft 134 kts 151°
2026-05-04 01:46 33.85705 -117.47859 8567 ft 133 kts 152°
2026-05-04 01:46 33.84943 -117.47221 8767 ft 134 kts 152°
2026-05-04 01:46 33.84182 -117.46583 8966 ft 133 kts 152°
2026-05-04 01:46 33.83387 -117.45922 8995 ft 145 kts 152°
2026-05-04 01:47 33.82535 -117.45213 9008 ft 153 kts 152°
2026-05-04 01:47 33.81647 -117.44470 9009 ft 158 kts 151°
2026-05-04 01:47 33.80729 -117.43702 9007 ft 163 kts 152°
2026-05-04 01:47 33.79790 -117.42916 9006 ft 167 kts 152°
2026-05-04 01:48 33.78834 -117.42116 9002 ft 168 kts 152°
2026-05-04 01:48 33.77879 -117.41316 8992 ft 167 kts 151°
2026-05-04 01:48 33.76928 -117.40518 8994 ft 167 kts 151°
2026-05-04 01:48 33.75968 -117.39716 8992 ft 168 kts 152°
2026-05-04 01:49 33.75006 -117.38912 8997 ft 169 kts 151°
2026-05-04 01:49 33.74038 -117.38104 8990 ft 170 kts 151°
2026-05-04 01:49 33.73066 -117.37292 8987 ft 170 kts 152°
2026-05-04 01:49 33.72099 -117.36484 8987 ft 169 kts 151°
2026-05-04 01:50 33.71142 -117.35685 8990 ft 170 kts 152°
2026-05-04 01:50 33.70169 -117.34873 8986 ft 170 kts 152°
2026-05-04 01:50 33.69199 -117.34063 8987 ft 170 kts 152°
2026-05-04 01:50 33.68229 -117.33254 8986 ft 170 kts 152°
2026-05-04 01:51 33.67263 -117.32447 8984 ft 169 kts 152°
2026-05-04 01:51 33.66298 -117.31643 8985 ft 169 kts 152°
2026-05-04 01:51 33.65331 -117.30837 8985 ft 169 kts 152°
2026-05-04 01:51 33.64362 -117.30029 8984 ft 169 kts 152°
2026-05-04 01:52 33.63395 -117.29224 8998 ft 169 kts 152°
2026-05-04 01:52 33.62426 -117.28417 9001 ft 170 kts 152°
2026-05-04 01:52 33.61455 -117.27608 9000 ft 170 kts 152°
2026-05-04 01:52 33.60485 -117.26801 9002 ft 170 kts 152°
2026-05-04 01:53 33.59513 -117.25992 8998 ft 170 kts 152°
2026-05-04 01:53 33.58539 -117.25182 9000 ft 170 kts 152°
2026-05-04 01:53 33.57565 -117.24372 8999 ft 170 kts 152°
2026-05-04 01:53 33.56595 -117.23565 8995 ft 170 kts 152°
2026-05-04 01:54 33.55637 -117.22768 8996 ft 170 kts 152°
2026-05-04 01:54 33.54669 -117.21964 8996 ft 169 kts 152°
2026-05-04 01:54 33.53690 -117.21149 8996 ft 169 kts 153°
2026-05-04 01:54 33.52741 -117.20361 8988 ft 168 kts 153°
2026-05-04 01:55 33.51793 -117.19572 9009 ft 166 kts 152°
2026-05-04 01:55 33.50849 -117.18790 9003 ft 163 kts 152°
2026-05-04 01:55 33.49914 -117.18010 9008 ft 165 kts 153°
2026-05-04 01:55 33.48965 -117.17228 9011 ft 166 kts 153°
2026-05-04 01:56 33.48008 -117.16437 9015 ft 168 kts 153°
2026-05-04 01:56 33.46960 -117.15942 9018 ft 160 kts 177°
2026-05-04 01:56 33.45860 -117.15750 9023 ft 160 kts 178°
2026-05-04 01:56 33.44760 -117.15528 9028 ft 161 kts 176°
2026-05-04 01:57 33.43651 -117.15294 9022 ft 162 kts 176°
2026-05-04 01:57 33.42541 -117.15058 9025 ft 161 kts 177°
2026-05-04 01:57 33.41437 -117.14823 9023 ft 161 kts 177°
2026-05-04 01:57 33.40335 -117.14589 9024 ft 161 kts 176°
2026-05-04 01:58 33.39233 -117.14356 9030 ft 161 kts 177°
2026-05-04 01:58 33.38129 -117.14121 9032 ft 161 kts 177°
2026-05-04 01:58 33.37025 -117.13888 9032 ft 162 kts 177°
2026-05-04 01:58 33.35901 -117.13652 8838 ft 166 kts 177°
2026-05-04 01:59 33.34765 -117.13411 8592 ft 166 kts 176°
2026-05-04 01:59 33.33647 -117.13050 8331 ft 171 kts 160°
2026-05-04 01:59 33.32771 -117.12048 8068 ft 182 kts 127°
2026-05-04 01:59 33.32384 -117.10587 7812 ft 187 kts 107°
2026-05-04 02:00 33.32065 -117.09109 7574 ft 185 kts 114°
2026-05-04 02:00 33.31635 -117.07667 7335 ft 184 kts 117°
2026-05-04 02:00 33.31184 -117.06228 7091 ft 184 kts 116°
2026-05-04 02:00 33.30741 -117.04792 6852 ft 184 kts 116°
2026-05-04 02:01 33.30123 -117.03503 6607 ft 175 kts 141°
2026-05-04 02:01 33.29094 -117.02845 6372 ft 165 kts 173°
2026-05-04 02:01 33.27968 -117.02626 6131 ft 165 kts 175°
2026-05-04 02:01 33.26838 -117.02382 5884 ft 165 kts 174°
2026-05-04 02:02 33.25718 -117.02128 5624 ft 163 kts 174°
2026-05-04 02:02 33.24600 -117.01876 5370 ft 163 kts 174°
2026-05-04 02:02 33.23479 -117.01625 5132 ft 164 kts 173°
2026-05-04 02:02 33.22367 -117.01374 4962 ft 162 kts 173°
2026-05-04 02:03 33.21289 -117.01133 4947 ft 154 kts 173°
2026-05-04 02:03 33.20248 -117.00896 4934 ft 151 kts 173°
2026-05-04 02:03 33.19217 -117.00664 4932 ft 151 kts 173°
2026-05-04 02:03 33.18183 -117.00537 4933 ft 148 kts 191°
2026-05-04 02:04 33.17287 -117.01087 4837 ft 151 kts 227°
2026-05-04 02:04 33.16847 -117.02244 4650 ft 160 kts 259°
2026-05-04 02:04 33.16722 -117.03565 4455 ft 160 kts 261°
2026-05-04 02:04 33.16539 -117.04887 4256 ft 163 kts 258°
2026-05-04 02:05 33.16329 -117.06221 4055 ft 164 kts 258°
2026-05-04 02:05 33.16115 -117.07555 3856 ft 164 kts 259°
2026-05-04 02:05 33.15902 -117.08892 3655 ft 164 kts 259°
2026-05-04 02:05 33.15708 -117.10225 3473 ft 163 kts 260°
2026-05-04 02:06 33.15503 -117.11552 3295 ft 162 kts 259°
2026-05-04 02:06 33.15281 -117.12866 3152 ft 161 kts 257°
2026-05-04 02:06 33.15046 -117.14166 2984 ft 160 kts 260°
2026-05-04 02:06 33.14844 -117.15482 2765 ft 163 kts 259°
2026-05-04 02:07 33.14614 -117.16808 2552 ft 161 kts 260°
2026-05-04 02:07 33.14446 -117.18106 2286 ft 161 kts 261°
2026-05-04 02:07 33.14218 -117.19414 1996 ft 160 kts 257°
2026-05-04 02:07 33.14026 -117.20717 1722 ft 159 kts 261°
2026-05-04 02:08 33.13808 -117.21977 1471 ft 143 kts 258°
2026-05-04 02:08 33.13641 -117.23049 1228 ft 124 kts 262°
2026-05-04 02:08 33.13470 -117.24030 984 ft 117 kts 262°
2026-05-04 02:08 33.13335 -117.24950 827 ft 110 kts 261°
2026-05-04 02:09 33.13198 -117.25720 672 ft 88 kts 260°
2026-05-04 02:09 33.13094 -117.26371 537 ft 75 kts 259°
2026-05-04 02:09 33.12997 -117.26963 415 ft 72 kts 259°
2026-05-04 02:09 33.12905 -117.27522 337 ft 61 kts 258°
2026-05-04 02:10 33.12836 -117.27884 334 ft 24 kts 239°
2026-05-04 02:10 33.12762 -117.27956 336 ft 11 kts 146°
2026-05-04 02:10 33.12764 -117.27879 336 ft 9 kts 90°
2026-05-04 02:10 33.12740 -117.27863 334 ft 5 kts 172°
2026-05-04 02:11 33.12715 -117.27870 336 ft 0 kts 258°